FW6147 Weather Reports


time (UTC)temp
F
wind
direction
speed
knots
gust
knots
rain 1hr
in
rain 24hr
in
rain mn
in
humidity
%
barometer
mb
20260831134605 67 0 0.0 0.9 0.00 0.09 0.09 90 1022.8
20260831134055 67 0 0.0 1.7 0.00 0.09 0.09 90 1022.8
20260831133556 66 0 0.0 5.2 0.00 0.09 0.09 90 1022.6
20260831133106 66 0 1.7 5.2 0.00 0.09 0.09 90 1022.4
20260831132554 66 172 0.0 2.6 0.00 0.09 0.09 90 1022.4
20260831132059 66 0 0.0 0.0 0.00 0.09 0.09 90 1022.1
20260831131622 66 0 0.0 0.0 0.00 0.09 0.09 90 1021.9
20260831131059 66 0 0.0 0.0 0.00 0.09 0.09 90 1021.9
20260831130555 66 0 0.0 1.7 0.00 0.09 0.09 90 1021.6
20260831130114 66 0 0.0 1.7 0.00 0.09 0.09 90 1021.5
20260831125555 66 172 0.0 1.7 0.00 0.09 0.09 90 1021.5
20260831125054 66 0 0.0 6.1 0.00 0.09 0.09 90 1021.5
20260831124607 66 172 1.7 6.1 0.00 0.09 0.09 90 1021.3
20260831124054 66 167 3.5 6.1 0.00 0.09 0.09 90 1021.1
20260831123556 66 168 2.6 6.1 0.00 0.09 0.09 90 1021.1
20260831123105 66 154 4.3 9.6 0.00 0.09 0.09 90 1021.0
20260831122556 66 160 1.7 9.6 0.00 0.09 0.09 90 1020.9
20260831122055 67 143 6.1 9.6 0.00 0.09 0.09 91 1020.9
20260831121612 66 359 1.7 4.3 0.00 0.09 0.09 90 1020.4
20260831121055 67 181 0.0 2.6 0.00 0.09 0.09 91 1020.0
20260831120555 67 0 0.0 2.6 0.00 0.09 0.09 91 1020.2
20260831120109 66 173 0.9 2.6 0.00 0.09 0.09 91 1020.2
20260831115554 66 0 0.0 0.0 0.00 0.09 0.09 90 1020.3
20260831115054 66 0 0.0 0.9 0.00 0.09 0.09 90 1020.4
20260831114603 66 0 0.0 0.9 0.00 0.09 0.09 90 1020.5
20260831114052 66 0 0.0 0.9 0.00 0.09 0.09 90 1020.5
20260831113552 66 0 0.0 0.9 0.01 0.09 0.09 90 1020.5
20260831113105 66 0 0.0 2.6 0.01 0.09 0.09 90 1020.5
20260831112556 66 0 0.0 3.5 0.01 0.09 0.09 90 1020.3
20260831112054 66 168 1.7 5.2 0.01 0.09 0.09 90 1020.7
20260831111608 66 168 2.6 5.2 0.01 0.09 0.09 90 1020.9
20260831111054 66 169 2.6 4.3 0.01 0.09 0.09 90 1020.9
20260831110559 66 175 2.6 6.1 0.01 0.09 0.09 90 1020.7
20260831110115 66 172 3.5 6.1 0.01 0.09 0.09 90 1020.9
20260831105555 66 167 2.6 5.2 0.01 0.09 0.09 90 1020.9
20260831105056 66 170 2.6 5.2 0.01 0.09 0.09 90 1020.9
20260831104600 66 172 2.6 5.2 0.02 0.09 0.09 90 1021.0
20260831104054 66 0 0.0 0.9 0.02 0.09 0.09 90 1021.0
20260831103556 66 0 0.0 1.7 0.01 0.08 0.08 89 1021.0
20260831103106 66 0 0.0 3.5 0.02 0.08 0.08 89 1021.2
20260831102558 66 74 0.9 3.5 0.02 0.08 0.08 89 1021.3
20260831102055 66 68 0.9 2.6 0.02 0.08 0.08 89 1021.5
20260831101608 66 0 0.0 4.3 0.02 0.08 0.08 88 1021.5
20260831101055 66 68 0.9 4.3 0.02 0.08 0.08 88 1021.5
20260831100556 66 68 1.7 4.3 0.02 0.08 0.08 88 1021.5
20260831100110 66 74 2.6 5.2 0.02 0.08 0.08 88 1021.6
20260831095554 66 86 2.6 7.0 0.02 0.08 0.08 88 1022.0
20260831095056 66 52 3.5 7.8 0.02 0.08 0.08 87 1022.0
20260831094602 66 71 4.3 7.8 0.01 0.07 0.07 86 1022.0
20260831094055 66 61 3.5 7.0 0.01 0.07 0.07 87 1022.1
20260831093551 66 46 3.5 8.7 0.01 0.07 0.07 87 1022.1
20260831093103 66 52 5.2 8.7 0.00 0.06 0.06 86 1022.1
20260831092554 66 65 4.3 7.8 0.00 0.06 0.06 86 1022.1
20260831092055 66 67 5.2 7.8 0.01 0.06 0.06 86 1022.1
20260831091608 66 69 2.6 5.2 0.04 0.06 0.06 86 1022.1
20260831091055 66 88 1.7 6.1 0.05 0.06 0.06 86 1022.1
20260831090553 66 92 2.6 6.1 0.06 0.06 0.06 86 1021.7
20260831085551 66 104 3.5 7.0 0.06 0.06 0.06 85 1021.4
20260831085051 66 179 0.9 9.6 0.06 0.06 0.06 85 1021.0
20260831084600 66 176 5.2 10.4 0.06 0.06 0.06 85 1021.0
20260831084054 66 174 7.0 10.4 0.06 0.06 0.06 84 1021.1
20260831083554 67 129 6.1 12.2 0.06 0.06 0.06 83 1021.0
20260831083106 67 156 5.2 14.8 0.06 0.06 0.06 83 1021.0
20260831082554 67 153 7.8 17.4 0.06 0.06 0.06 81 1021.1
20260831082055 68 163 12.2 18.2 0.05 0.05 0.05 79 1021.4
20260831081605 69 141 12.2 18.2 0.02 0.02 0.02 77 1021.3
20260831081055 70 140 13.0 17.4 0.01 0.01 0.01 74 1020.9
20260831080558 73 166 4.3 13.0 0.00 0.00 0.00 65 1020.5
20260831080104 74 186 1.7 5.2 0.00 0.00 0.00 58 1020.4
20260831075556 75 194 2.6 5.2 0.00 0.00 0.00 55 1020.6
20260831075051 76 198 2.6 5.2 0.00 0.00 0.00 54 1020.5
20260831074606 77 202 2.6 5.2 0.00 0.00 0.00 50 1020.4
20260831074054 77 202 2.6 11.3 0.00 0.00 0.00 48 1020.2
20260831073555 77 208 2.6 13.0 0.00 0.00 0.00 49 1020.2
20260831073112 77 190 1.7 13.0 0.00 0.00 0.00 52 1020.1
20260831072556 77 170 7.8 13.0 0.00 0.00 0.00 53 1020.2
20260831072055 77 122 3.5 7.0 0.00 0.00 0.00 56 1020.2
20260831071601 77 122 4.3 8.7 0.00 0.00 0.00 56 1020.2
20260831071058 77 141 5.2 8.7 0.00 0.00 0.00 53 1020.1
20260831070554 77 150 1.7 5.2 0.00 0.00 0.00 49 1020.1
20260831070110 77 268 0.9 5.2 0.00 0.00 0.00 47 1020.0
20260831065551 76 264 2.6 5.2 0.00 0.00 0.00 49 1020.1
20260831065054 76 321 1.7 5.2 0.00 0.00 0.00 53 1019.9
20260831064610 77 198 0.9 2.6 0.00 0.00 0.00 58 1019.8
20260831064052 77 0 0.0 0.9 0.00 0.00 0.00 57 1019.6
20260831063553 77 0 0.0 1.7 0.00 0.00 0.00 57 1019.8
20260831063109 77 198 0.0 1.7 0.00 0.00 0.00 55 1019.9
20260831062555 77 198 0.0 1.7 0.00 0.00 0.00 55 1019.9
20260831062057 78 0 0.0 7.0 0.00 0.00 0.00 55 1019.9
20260831061602 78 0 0.0 7.0 0.00 0.00 0.00 53 1020.0
20260831061054 78 243 2.6 7.0 0.00 0.00 0.00 52 1020.2
20260831060554 77 274 1.7 4.3 0.00 0.00 0.00 54 1020.1
20260831060107 77 303 1.7 4.3 0.00 0.00 0.00 57 1020.2
20260831055554 77 306 1.7 4.3 0.00 0.00 0.00 60 1020.1
20260831055054 77 302 1.7 6.1 0.00 0.00 0.00 61 1020.1
20260831054607 77 287 0.9 6.1 0.00 0.00 0.00 62 1020.1
20260831054051 77 293 0.0 6.1 0.00 0.00 0.00 62 1020.2
20260831053558 77 249 1.7 6.1 0.00 0.00 0.00 60 1020.3
20260831053105 79 243 1.7 4.3 0.00 0.00 0.00 58 1020.2
20260831052550 80 236 2.6 5.2 0.00 0.00 0.00 53 1020.2
20260831052050 81 238 1.7 5.2 0.00 0.00 0.00 49 1020.2
20260831051557 80 282 0.9 2.6 0.00 0.00 0.00 49 1020.2
20260831051053 80 263 0.0 2.6 0.00 0.00 0.00 51 1020.3
20260831050552 80 0 0.0 2.6 0.00 0.00 0.00 51 1020.2
20260831050106 80 263 1.7 3.5 0.00 0.00 0.00 50 1020.0
20260831045555 80 263 0.9 3.5 0.00 0.04 0.00 50 1020.1
20260831045055 80 264 0.9 2.6 0.00 0.04 0.00 50 1020.2
20260831044631 79 263 0.9 2.6 0.00 0.04 0.00 50 1020.0
20260831044057 79 264 0.0 1.7 0.00 0.04 0.00 50 1019.8
20260831043551 79 0 0.0 1.7 0.00 0.04 0.00 50 1019.8
20260831043108 79 263 0.0 1.7 0.00 0.04 0.00 50 1019.9
20260831042554 79 263 0.0 2.6 0.00 0.04 0.00 50 1019.9
20260831042051 79 263 0.9 2.6 0.00 0.04 0.00 50 1019.9
20260831041614 79 263 0.9 1.7 0.00 0.04 0.00 51 1019.9
20260831041058 78 263 0.9 1.7 0.00 0.04 0.00 51 1019.9
20260831040555 78 263 0.9 1.7 0.00 0.04 0.00 51 1019.8
20260831035554 78 0 0.0 0.0 0.00 0.04 0.00 53 1019.9
20260831035052 78 0 0.0 1.7 0.00 0.04 0.00 53 1019.8
20260831034607 78 0 0.0 2.6 0.00 0.04 0.00 53 1019.7
20260831034054 78 0 0.9 2.6 0.00 0.04 0.00 53 1019.6
20260831033554 78 263 0.0 1.7 0.00 0.04 0.00 53 1019.5
20260831033101 79 263 0.9 3.5 0.00 0.04 0.00 52 1019.4
20260831032555 79 263 0.9 3.5 0.00 0.04 0.00 52 1019.4
20260831032051 79 264 1.7 3.5 0.00 0.04 0.00 51 1019.4
20260831031608 79 264 1.7 3.5 0.00 0.04 0.00 50 1019.3
20260831031054 79 266 0.9 3.5 0.00 0.04 0.00 50 1019.1
20260831030554 78 267 1.7 3.5 0.00 0.04 0.00 50 1019.0
20260831025553 79 269 1.7 3.5 0.00 0.04 0.00 52 1018.8
20260831025054 79 271 1.7 2.6 0.00 0.04 0.00 52 1018.8
20260831024600 79 271 0.9 2.6 0.00 0.04 0.00 52 1018.8
20260831024052 79 274 0.9 2.6 0.00 0.04 0.00 51 1018.7
20260831023552 79 274 0.9 2.6 0.00 0.04 0.00 51 1018.6
20260831023105 80 278 1.7 2.6 0.00 0.04 0.00 49 1018.5
20260831022556 80 280 1.7 2.6 0.00 0.04 0.00 47 1018.4
20260831022057 81 0 0.9 2.6 0.00 0.04 0.00 45 1018.4
20260831021602 81 0 0.0 0.0 0.00 0.04 0.00 44 1018.4
20260831021056 82 0 0.0 0.9 0.00 0.04 0.00 43 1018.4
20260831020555 83 0 0.0 1.7 0.00 0.04 0.00 41 1018.3
20260831020105 83 0 0.0 1.7 0.00 0.04 0.00 40 1018.3
20260831015555 84 351 0.9 2.6 0.00 0.04 0.00 38 1018.3
20260831015054 85 351 0.0 2.6 0.00 0.04 0.00 37 1018.3
20260831014604 85 351 0.9 2.6 0.00 0.04 0.00 36 1018.2
20260831014056 85 0 0.0 1.7 0.00 0.04 0.00 36 1018.3
20260831013555 85 351 0.0 2.6 0.00 0.04 0.00 36 1018.3
20260831013109 86 351 0.9 4.3 0.00 0.04 0.00 36 1018.3
20260831012558 86 351 1.7 5.2 0.00 0.04 0.00 36 1018.3
20260831012056 87 352 1.7 5.2 0.00 0.04 0.00 35 1018.2
20260831011602 88 316 1.7 5.2 0.00 0.04 0.00 33 1018.2
20260831011056 88 321 1.7 5.2 0.00 0.04 0.00 33 1018.2
20260831010557 89 323 1.7 7.8 0.00 0.04 0.00 33 1018.2
20260831005559 90 288 4.3 9.6 0.00 0.04 0.00 31 1018.1
20260831005057 90 312 4.3 9.6 0.00 0.04 0.00 30 1018.0
20260831004606 91 291 2.6 6.1 0.00 0.04 0.00 30 1018.1
20260831004054 91 320 2.6 6.1 0.00 0.04 0.00 30 1018.2
20260831003600 92 321 2.6 5.2 0.00 0.04 0.00 30 1018.2
20260831003107 92 236 1.7 6.1 0.00 0.04 0.00 30 1018.2
20260831002556 92 0 2.6 6.1 0.00 0.04 0.00 30 1018.2
20260831002055 92 278 0.9 7.8 0.00 0.04 0.00 30 1018.2
20260831001603 92 281 2.6 7.8 0.00 0.04 0.00 29 1018.2
20260831001056 92 313 2.6 5.2 0.00 0.04 0.00 29 1018.3
20260831000555 93 293 0.9 7.0 0.00 0.04 0.00 29 1018.3
20260831000108 92 264 2.6 7.0 0.00 0.04 0.00 29 1018.2
20260830235559 93 238 2.6 5.2 0.00 0.05 0.00 29 1018.2
20260830235057 93 308 1.7 5.2 0.00 0.05 0.00 28 1018.3
20260830234604 93 311 0.9 4.3 0.00 0.05 0.00 29 1018.3
20260830234054 92 258 1.7 5.2 0.00 0.05 0.00 29 1018.3
20260830233554 92 0 1.7 7.0 0.00 0.05 0.00 30 1018.3
20260830233106 92 339 1.7 7.0 0.00 0.05 0.00 30 1018.4
20260830232557 91 1 4.3 7.0 0.00 0.05 0.00 30 1018.4
20260830232055 92 1 2.6 5.2 0.00 0.05 0.00 29 1018.3
20260830231607 92 0 1.7 8.7 0.00 0.05 0.00 29 1018.4
20260830231054 92 303 4.3 8.7 0.00 0.05 0.00 29 1018.5
20260830230555 92 299 1.7 8.7 0.00 0.05 0.00 29 1018.5
20260830230107 92 296 5.2 8.7 0.00 0.05 0.00 29 1018.5
20260830225555 92 277 4.3 8.7 0.00 0.05 0.00 29 1018.7
20260830225055 93 293 5.2 7.8 0.00 0.05 0.00 28 1018.7
20260830224603 93 271 1.7 4.3 0.00 0.05 0.00 29 1018.8
20260830224052 92 261 0.0 4.3 0.00 0.05 0.00 30 1018.8
20260830223555 92 217 1.7 8.7 0.00 0.05 0.00 30 1018.9
20260830223108 92 340 4.3 8.7 0.00 0.05 0.00 29 1019.0
20260830222555 91 346 2.6 7.0 0.00 0.05 0.00 32 1019.1
20260830222059 91 10 3.5 7.0 0.00 0.05 0.00 32 1019.1
20260830221610 91 356 3.5 8.7 0.00 0.05 0.00 32 1019.2
20260830221057 91 13 1.7 8.7 0.00 0.05 0.00 31 1019.4
20260830220555 91 298 4.3 8.7 0.00 0.05 0.00 31 1019.5
20260830220108 91 334 4.3 8.7 0.00 0.05 0.00 31 1019.6
20260830215556 91 295 3.5 9.6 0.00 0.10 0.00 31 1019.7
20260830215055 91 239 6.1 9.6 0.00 0.10 0.00 31 1019.8
20260830214609 91 302 3.5 11.3 0.00 0.10 0.00 31 1019.8
20260830214055 91 319 4.3 11.3 0.00 0.10 0.00 31 1019.9
20260830213554 90 259 4.3 11.3 0.00 0.10 0.00 32 1019.9
20260830213108 90 325 5.2 11.3 0.00 0.10 0.00 32 1020.0
20260830212558 90 340 3.5 9.6 0.00 0.10 0.00 32 1020.0
20260830212055 91 308 2.6 9.6 0.00 0.10 0.00 32 1020.2
20260830211606 91 323 5.2 8.7 0.00 0.10 0.00 31 1020.2
20260830211055 91 317 3.5 7.8 0.00 0.10 0.00 34 1020.3
20260830210556 91 359 5.2 13.0 0.00 0.10 0.00 31 1020.4
20260830210108 91 297 4.3 13.0 0.00 0.10 0.00 31 1020.4
20260830205556 90 359 1.7 8.7 0.00 0.12 0.00 34 1020.5
20260830205054 90 8 4.3 12.2 0.00 0.12 0.00 32 1020.5
20260830204605 90 360 3.5 12.2 0.00 0.12 0.00 32 1020.4
20260830204056 91 303 6.1 12.2 0.00 0.12 0.00 31 1020.7
20260830203555 91 259 3.5 7.8 0.00 0.12 0.00 32 1020.7
20260830203107 91 348 4.3 8.7 0.00 0.12 0.00 32 1020.8
20260830202556 90 328 4.3 11.3 0.00 0.12 0.00 34 1020.9
20260830202119 90 329 5.2 11.3 0.00 0.12 0.00 33 1021.0
20260830201616 90 276 6.1 11.3 0.00 0.12 0.00 33 1021.1
20260830201056 89 314 5.2 10.4 0.00 0.12 0.00 35 1021.2
20260830200554 89 13 3.5 9.6 0.00 0.12 0.00 35 1021.3
20260830200107 89 13 3.5 9.6 0.00 0.12 0.00 37 1021.3
20260830195556 89 26 4.3 8.7 0.00 0.12 0.00 36 1021.3
20260830195056 89 134 0.9 7.8 0.00 0.12 0.00 37 1021.5
20260830194610 89 350 4.3 8.7 0.00 0.12 0.00 37 1021.6
20260830194056 89 338 3.5 8.7 0.00 0.12 0.00 39 1021.6
20260830193555 88 351 3.5 7.8 0.00 0.12 0.00 39 1021.6
20260830193107 87 356 2.6 8.7 0.00 0.12 0.00 39 1021.8
20260830192554 88 335 4.3 8.7 0.00 0.12 0.00 39 1021.9
20260830192057 87 326 2.6 8.7 0.00 0.12 0.00 40 1021.9
20260830191604 87 359 4.3 8.7 0.00 0.12 0.00 41 1022.0
20260830191054 87 316 5.2 8.7 0.00 0.12 0.00 41 1022.0
20260830190554 87 340 4.3 7.8 0.00 0.12 0.00 41 1022.1
20260830185558 86 1 3.5 6.1 0.00 0.12 0.00 45 1022.2
20260830185056 85 349 2.6 5.2 0.00 0.12 0.00 45 1022.5
20260830184609 84 53 1.7 4.3 0.00 0.12 0.00 46 1022.5
20260830184054 83 0 1.7 5.2 0.00 0.12 0.00 46 1022.6
20260830183556 83 41 1.7 7.0 0.00 0.12 0.00 47 1022.7
20260830183105 84 6 2.6 7.0 0.00 0.12 0.00 47 1022.8
20260830182556 83 4 2.6 7.0 0.00 0.12 0.00 48 1022.9
20260830182053 83 10 1.7 5.2 0.00 0.12 0.00 46 1022.9
20260830181604 84 39 1.7 3.5 0.00 0.12 0.00 46 1023.0
20260830181052 83 34 1.7 4.3 0.00 0.12 0.00 46 1022.9
20260830180557 83 25 1.7 4.3 0.00 0.12 0.00 48 1023.1
20260830180114 83 52 0.9 4.3 0.00 0.12 0.00 47 1023.0
20260830175555 83 43 1.7 3.5 0.00 0.12 0.00 46 1023.1
20260830175056 82 0 0.9 4.3 0.00 0.12 0.00 48 1023.1
20260830174616 82 11 1.7 4.3 0.00 0.12 0.00 49 1023.3
20260830174054 81 360 1.7 5.2 0.00 0.12 0.00 50 1023.2
20260830173554 82 33 1.7 5.2 0.00 0.12 0.00 53 1023.4
20260830173105 81 44 1.7 4.3 0.00 0.12 0.00 52 1023.4
20260830172555 80 13 1.7 4.3 0.00 0.12 0.00 54 1023.5
20260830172054 79 35 0.9 3.5 0.00 0.12 0.00 57 1023.5
20260830171602 79 37 1.7 3.5 0.00 0.12 0.00 58 1023.5
20260830171055 79 39 1.7 3.5 0.00 0.12 0.00 59 1023.6
20260830170555 79 39 0.9 2.6 0.00 0.12 0.00 57 1023.6
20260830165556 79 41 0.0 2.6 0.00 0.12 0.00 58 1023.6
20260830165057 79 42 1.7 3.5 0.00 0.12 0.00 58 1023.6
20260830164622 78 0 0.9 3.5 0.00 0.12 0.00 59 1023.7
20260830164055 77 30 0.0 2.6 0.00 0.12 0.00 61 1023.6
20260830163556 77 0 0.0 2.6 0.00 0.12 0.00 63 1023.7
20260830163102 76 30 0.0 2.6 0.00 0.12 0.00 63 1023.7
20260830162555 76 0 0.0 2.6 0.00 0.12 0.00 63 1023.8
20260830162054 75 30 0.0 1.7 0.00 0.12 0.00 64 1023.9
20260830161607 75 0 0.9 2.6 0.00 0.12 0.00 64 1023.8
20260830161054 75 30 0.0 2.6 0.00 0.12 0.00 66 1023.7
20260830160556 75 30 0.0 1.7 0.00 0.12 0.00 66 1023.8
20260830160104 74 0 0.0 1.7 0.00 0.12 0.00 66 1023.8
20260830155554 74 0 0.0 1.7 0.00 0.12 0.00 67 1023.9
20260830155057 74 30 0.0 2.6 0.00 0.12 0.00 67 1023.8
20260830154603 74 0 0.0 2.6 0.00 0.12 0.00 68 1023.8
20260830154055 73 0 0.9 2.6 0.00 0.12 0.00 70 1023.7
20260830153555 73 30 0.9 2.6 0.00 0.12 0.00 70 1023.7
20260830153101 73 30 0.0 1.7 0.00 0.12 0.00 71 1023.6
20260830152556 73 0 0.0 1.7 0.00 0.12 0.00 72 1023.5
20260830152058 73 0 0.0 1.7 0.00 0.12 0.00 72 1023.5
20260830151605 73 30 0.0 3.5 0.00 0.12 0.00 74 1023.4
20260830151100 73 0 0.0 3.5 0.00 0.12 0.00 72 1023.5
20260830150558 73 30 1.7 3.5 0.00 0.12 0.00 72 1023.5
20260830150104 72 30 0.0 0.9 0.00 0.12 0.00 71 1023.3
20260830145559 72 0 0.0 0.0 0.00 0.12 0.00 72 1023.5
20260830145057 72 0 0.0 0.0 0.00 0.12 0.00 72 1023.4
20260830144602 72 0 0.0 0.9 0.00 0.12 0.00 73 1023.5
20260830144054 72 0 0.0 1.7 0.00 0.12 0.00 74 1023.5
20260830143600 72 0 0.0 1.7 0.00 0.12 0.00 74 1023.7
20260830143107 72 0 0.0 1.7 0.00 0.12 0.00 74 1023.5
20260830142554 72 30 0.0 2.6 0.00 0.12 0.00 75 1023.6
20260830142055 71 0 0.0 3.5 0.00 0.12 0.00 75 1023.6
20260830141603 72 30 0.9 3.5 0.00 0.12 0.00 75 1023.6
20260830141056 71 30 1.7 7.0 0.00 0.12 0.00 74 1023.7
20260830140555 71 30 2.6 7.0 0.00 0.12 0.00 75 1023.5
20260830140106 71 27 4.3 7.0 0.00 0.12 0.00 74 1023.4
20260830135555 71 11 3.5 7.0 0.00 0.12 0.00 75 1023.4
20260830135055 71 8 2.6 4.3 0.00 0.12 0.00 75 1023.4